GSAT-17

Last updated on Jan. 25, 2020, 4:43 a.m. UTC

1 42815U 17040B   20024.78521149 -.00000266  00000-0  00000+0 0  9991
2 42815   0.0580 269.2391 0005261 357.5763 232.8908  1.00270278  9454
UTC
Height (km)
Latitude
Longitude
Inclination
Orbital Period
UTC large
Height (km)
Speed (km/s)
/
Latitude / Longitude
Inclination (degrees)
Orbital Period (minutes)
Azimuth
Elevation
Range (km)
Doppler Factor
iOS Compass Heading
iOS Angle

Next 30 passes for location: Hong Kong

Rise time Rise Azimuth (degrees) Set time Set Azimuth (degrees) Duration Max altitude (degrees)

No matching passes for this satellites